Flag for Germany Weather past 2 weeks in Bad Kissingen, Bavaria, Germany

48 °F

Light rain. Overcast.

Feels Like: 39 °F
Forecast: 42 / 50 °F
Wind: 33 mph from West

Location: Illesheim

Current Time: Dec 1, 2015 at 3:14:14 AM

Latest Report: Dec 1, 2015 at 1:58 AM

Visibility: N/A

Pressure: 30.09 "Hg

Humidity: 87%

Dew point: 45 °F

Location of Bad KissingenLocation

Historic Weather in Bad Kissingen — Graph


Bad Kissingen temperature yesterday

Maximum temperature yesterday: 50 °F (at 2:58 AM)
Minimum temperature yesterday: 44 °F (at 9:58 AM)
Average temperature yesterday: 48 °F

Past Weeks' High & Low Weather Summary

High59 °F (Nov 16, 11:58 AM)100% (Nov 16, 2:58 AM)30.33 "Hg (Nov 16, 2:58 AM)
Low27 °F (Nov 27, 12:03 AM)39% (Nov 16, 11:58 AM)29.42 "Hg (Nov 21, 5:00 PM)
Average41 °F84%29.96 "Hg
* Reported Nov 16 12:58 AM — Dec 1 12:58 AM, Bad Kissingen, Weather by CustomWeather, © 2015

Note: Actual official high and low records may vary slightly from our data, if they occured in-between our weather recording intervals... More about our weather records


Bad Kissingen weather history for previous 24 hours

Time TempWeatherWind HumidityBarometerVisibility
12:58 AM
Tue, Dec 1
48 °FLight rain. Overcast.31 mph87%30.08 "HgN/A
11:58 PM
Mon, Nov 30
48 °FLight rain. Mostly cloudy.31 mph87%30.06 "HgN/A
10:58 PM48 °FLight rain. Overcast.26 mph85%30.05 "HgN/A
9:58 PM48 °FLight rain. Mostly cloudy.30 mph85%30.05 "HgN/A
8:58 PM49 °FLight rain. Partly cloudy.29 mph78%30.04 "HgN/A
7:58 PM48 °FMostly cloudy.25 mph82%30.07 "HgN/A
6:58 PM48 °FMostly cloudy.23 mph81%30.09 "HgN/A
5:58 PM49 °FMostly cloudy.25 mph77%30.10 "HgN/A
4:58 PM48 °FMostly cloudy.22 mph80%30.10 "HgN/A
3:58 PM48 °FMostly cloudy.28 mph82%30.10 "HgN/A
2:58 PM48 °FLight rain. Fog.26 mph89%30.12 "HgN/A
1:58 PM49 °FOvercast.26 mph85%30.14 "HgN/A
12:58 PM48 °FLight rain. Overcast.23 mph87%30.15 "HgN/A
11:58 AM48 °FLight rain. Overcast.20 mph87%30.17 "HgN/A
11:01 AM45 °FLight rain. Mostly cloudy.7 mph93%30.17 "HgN/A
9:58 AM44 °FRain. Fog.9 mph93%30.19 "Hg6 mi
8:58 AM45 °FLight rain. Overcast.16 mph89%30.17 "HgN/A
7:58 AM48 °FRain. Overcast.26 mph87%30.11 "HgN/A
6:58 AM47 °FLight rain. Mostly cloudy.25 mph88%30.08 "HgN/A
5:58 AM48 °FLight rain. Mostly cloudy.30 mph82%30.07 "HgN/A
4:58 AM47 °FLight rain. Mostly cloudy.29 mph86%30.06 "HgN/A
3:58 AM47 °FLight rain. Mostly cloudy.29 mph85%30.04 "HgN/A
Weather by CustomWeather, © 2015

See weather overviewHow to use our weather pages